Location: Blanot
(47.1713°N, 4.2340°E)
Time: 04:44:05
(UTC+00:00)

UNK - Pass Details

Date: 14 July 2020
Orbit: 667 x 685 km, 98.1° (Epoch: 06 August)

Event Time Altitude Azimuth Distance (km) Brightness Sun altitude
Exits shadow 01:33:05 29° 179° (S) 1,221 4.6 -17.3°
Maximum altitude 01:35:22 72° 257° (WSW) 715 3.7 -17.1°
Drops below altitude 10° 01:40:01 10° 342° (NNW) 2,127 6.9 -16.8°
Sets 01:42:17 0° 345° (NNW) 3,050 7.9 -16.6°
